ATLAS 5 CENTAUR DEB, 44675

Orbit data source: Space-Track

ATLAS 5 CENTAUR DEB, 44675 is space debris in HEO originally from a launch on Wed, 17 Oct 2018 UTC launched from the Air Force Eastern Test Range (AFETR). Debris objects in space refer to the collection of defunct objects orbiting the Earth. Examples of debris include non-operational satellites, rocket bodies, and fragments generated from explosions, collisions, or faulty payload assembly.

Not visible in the next 10 days
Identifier
44675, 2018-079AM
Orbit
HEO
Last TLE update
2 days ago
Origin
Flag of USUnited Launch Alliance/Lockheed Martin (US)
Manufacturer
ULA Decatur
Mission
Spacecraft
Bus & Motor
Unknown
Mass
Unknown
Launch date (UTC)
2018-10-17 (7 years ago)
Launch vehicle
Unknown
Launch site
Air Force Eastern Test Range (AFETR)
Object type
Payload
Rocket body
Debris
Shape & HBR
Unknown
Radar Cross Section
RCS unknown

Expand to show TLE details & history

TLE from 2 days ago
0 ATLAS 5 CENTAUR DEB
1 44675U 18079AM  25180.15689528 -.00000142  00000-0  00000-0 0  9999
2 44675  13.0224  67.2091 4668505 249.2761  55.6194  1.80468148 40587
Epoch: 2025-06-29T03:45Z
TLE epoch observation values (Epoch: 2025-06-29T03:45:55.752Z)
Latitude
0.00003°
Longitude
93.24745°
Altitude
20,345.028 km
Speed
3.981 km/s
True Right ascension
04h 28m 51s
True Declination
0° 00' 00"
Sunlit
Object was in daylight at epoch
Visualization orbit readout
Latitude
-1.75586°
Longitude
85.46786°
Altitude
18,447.772 km
Speed
4.257 km/s
Apparent Right ascension
04h 35m 23s
Apparent Declination
-10° 03' 40"
Sunlit
Object is in daylight
Visualization observer readout
Local Sidereal Time
20:19:09
Azimuth
74.916° E
Elevation
-32.347°
Doppler factor
1
Orbital elements
Apogee altitude
35,425.979 km
Perigee altitude
8,816.216 km
Semi-major axis
28,499.235 km
Eccentricity
0.46685
Inclination
13.0224°
RAAN
67.2091°
Arg. of periapsis
249.2761°
True anomaly
Unknown
Mean anomaly
55.6194°
Eccentric anomaly
Unknown
Mean motion
0.45112 °/min
Orbital period
798.01 mins
BSTAR
0
Loading maneuver chart data...
Loading SW <> Apogee altitude chart data...

ATLAS 5 CENTAUR DEB Visibility

Observer location: undefined°, undefined°

ATLAS 5 CENTAUR DEB is likely not visible in the next few days
Span
Click to sort rows by Start time (UTC) header in descending order
Start Az.
Max El. time (UTC)
Max El. Az.
Max El.
End time (UTC)
End Az.
|